STARLINK-32390, 61630

Orbit data source: Space-Track

STARLINK-32390, 61630 is a payload satellite owned by SpaceX/Seattle (US) in LEO that was launched on Wed, 23 Oct 2024 UTC via an FALCON 9 launch vehicle from the Air Force Eastern Test Range (AFETR). Payload-class satellites include a variety of spacecraft equipped with specific instruments for various scientific and technological missions. These include communications satellites like Starlink; space stations such as the ISS; scientific satellites like the Hubble; Earth observation satellites from companies like Planet Labs, Umbra, and HawkEye 360; GPS; miniature CubeSats for education and research; and military/defense satellites.

Loading next visibility...
Identifier
61630, 2024-191K
Orbit
LEO
Country
Flag of USUS
Related business
Manufacturer
SpaceX/Seattle
Mission
Operational Commercial Communications
Bus & Motor
STARLINK V2M, Unknown motor
Mass
730 kg wet, ~700 kg dry
Launch date (UTC)
2024-10-23 (11 months ago)
Launch vehicle
FALCON 9
Launch site
Air Force Eastern Test Range (AFETR)
Object type
Payload
Rocket body
Debris
Shape & HBR
Box + 2 Pan, 14.5 m
Radar Cross Section
36.964 m², Large (>1 m²)

Expand to show TLE details & history
Last TLE update: 18 hours ago

TLE from 18 hours ago
0 STARLINK-32390
1 61630U 24191K   25258.19064555 -.00005014  00000-0 -17267-3 0  9998
2 61630  43.0032  65.8400 0000897 276.5108  83.5642 15.27606926 50698
Epoch: 2025-09-15T04:34Z
TLE epoch observation values (Epoch: 2025-09-15T04:34:31.775Z)
Latitude
0.00001°
Longitude
2.80876°
Altitude
482.675 km
Speed
7.626 km/s
True Right ascension
04h 23m 21s
True Declination
0° 00' 00"
Sunlit
Object was in daylight at epoch
Visualization orbit readout
Latitude
Unknown
Longitude
Unknown
Altitude
Unknown
Speed
Unknown
Apparent Right ascension
Unknown
Apparent Declination
Unknown
Sunlit
N/A
Visualization observer readout
Local Sidereal Time
15:21:38
Azimuth
Unknown
Elevation
Unknown
Doppler factor
Unknown
Orbital elements
Apogee altitude
485.529 km
Perigee altitude
484.298 km
Semi-major axis
6,863.05 km
Eccentricity
0.00009
Inclination
43.0032°
RAAN
65.84°
Arg. of periapsis
276.5108°
True anomaly
83.57441°
Mean anomaly
83.5642°
Eccentric anomaly
83.56931°
Mean motion
3.8174 °/min
Orbital period
94.31 mins
BSTAR
-0.00017267
Loading maneuver chart data...
Computing Atmospheric mass density...
Loading historical data...
Loading historical data...
Loading historical data...
Loading historical data...
Loading historical data...
Loading historical data...
Loading historical data...

Documentation

Showing up to 5 results
|